Home > Weather > Karlstad > Past weeks

Flag for Sweden Weather for the Past 2 Weeks in Karlstad, Sweden

Now
50 °F

Broken clouds.


Feels Like: 44 °F
Forecast: 41 / 49 °F
Wind: 17 mph from Southeast

Location: Karlstad

Current Time: Apr 30, 2016 at 12:11:26 PM

Latest Report: Apr 30, 2016 at 11:20 AM


Visibility: N/A

Pressure: 30.12 "Hg

Humidity: 58%

Dew Point: 36 °F

Location of KarlstadLocation

Historic Weather in Karlstad — Graph

°F

Karlstad Temperature Yesterday

Maximum temperature yesterday: 50 °F (at 4:20 PM)
Minimum temperature yesterday: 32 °F (at 12:20 AM)
Average temperature yesterday: 42 °F

High & Low Weather Summary for the Past Weeks

 TemperatureHumidityPressure
High57 °F (Apr 21, 2:20 PM)100% (Apr 15, 9:20 PM)30.18 "Hg (Apr 15, 9:20 PM)
Low27 °F (Apr 27, 3:50 AM)24% (Apr 20, 1:50 PM)29.36 "Hg (Apr 17, 3:20 AM)
Average41 °F74%29.74 "Hg
* Reported Apr 15 11:20 AM — Apr 30 11:20 AM, Karlstad, Weather by CustomWeather, © 2016

Note: Actual official high and low records may vary slightly from our data, if they occured in-between our weather recording intervals... More about our weather records

Advertising

Karlstad Weather History for the Previous 24 Hours

Scroll right to see more
 ConditionsComfort  
Time TempWeatherWind HumidityBarometerVisibility
11:20 AM
Sat, Apr 30
50 °FBroken clouds.17 mph58%30.12 "HgN/A
10:20 AM48 °FPassing clouds.13 mph62%30.15 "HgN/A
9:50 AM48 °FPassing clouds.13 mph62%30.12 "HgN/A
9:20 AM46 °FScattered clouds.13 mph66%30.15 "HgN/A
8:50 AM46 °FPassing clouds.14 mph62%30.12 "HgN/A
8:20 AM46 °FScattered clouds.13 mph62%30.12 "HgN/A
7:50 AM45 °FScattered clouds.13 mph66%30.12 "HgN/A
7:20 AM45 °FLight rain. Scattered clouds.14 mph66%30.12 "HgN/A
6:50 AM45 °FPartly sunny.13 mph61%30.12 "HgN/A
6:20 AM43 °FBroken clouds.14 mph71%30.12 "HgN/A
5:50 AM45 °FPassing clouds.13 mph61%30.12 "HgN/A
5:20 AM45 °FPartly cloudy.14 mph61%30.12 "HgN/A
4:20 AM45 °FPassing clouds.13 mph61%30.12 "HgN/A
3:50 AM45 °FPassing clouds.14 mph66%30.12 "HgN/A
3:20 AM45 °FPassing clouds.13 mph66%30.12 "HgN/A
2:50 AM45 °FPassing clouds.12 mph71%30.12 "HgN/A
2:20 AM45 °FPartly cloudy.14 mph71%30.12 "HgN/A
1:50 AM45 °FPassing clouds.13 mph71%30.12 "HgN/A
1:20 AM45 °FPassing clouds.15 mph71%30.09 "HgN/A
12:50 AM45 °FPassing clouds.13 mph71%30.09 "HgN/A
12:20 AM45 °FPartly cloudy.14 mph71%30.09 "HgN/A
11:50 PM
Fri, Apr 29
45 °FPassing clouds.10 mph71%30.09 "HgN/A
11:20 PM46 °FPassing clouds.10 mph66%30.09 "HgN/A
10:50 PM45 °FPassing clouds.12 mph71%30.09 "HgN/A
10:20 PM46 °FClear.13 mph66%30.09 "Hg10 mi
9:50 PM46 °FSunny.12 mph66%30.07 "Hg10 mi
9:20 PM46 °FSunny.10 mph62%30.07 "Hg10 mi
8:50 PM46 °FSunny.9 mph66%30.07 "Hg10 mi
8:20 PM46 °FSunny.12 mph62%30.07 "Hg10 mi
7:50 PM46 °FPassing clouds.10 mph66%30.07 "HgN/A
7:20 PM46 °FSunny.10 mph62%30.04 "Hg10 mi
6:50 PM48 °FSunny.15 mph58%30.04 "Hg10 mi
6:20 PM48 °FSunny.12 mph58%30.04 "Hg10 mi
5:50 PM50 °FSunny.12 mph54%30.04 "Hg10 mi
5:20 PM48 °FSunny.15 mph54%30.04 "Hg10 mi
4:50 PM50 °FPassing clouds.15 mph50%30.04 "HgN/A
4:20 PM50 °FSunny.14 mph54%30.04 "Hg10 mi
3:50 PM48 °FSunny.12 mph54%30.04 "Hg10 mi
3:20 PM48 °FSunny.13 mph58%30.04 "Hg10 mi
2:50 PM46 °FSunny.14 mph57%30.01 "Hg10 mi
2:20 PM46 °FSunny.20 mph57%30.01 "Hg10 mi
1:50 PM48 °FPassing clouds.16 mph62%30.01 "HgN/A
1:20 PM46 °FScattered clouds.18 mph66%29.98 "HgN/A
12:50 PM46 °FScattered clouds.16 mph71%29.98 "HgN/A
12:20 PM45 °FBroken clouds.16 mph81%29.95 "HgN/A
Weather by CustomWeather, © 2016

See weather overviewHow to use our weather pages